SCP
0 0 0 0 0 0 0 0 0 0 0 0 0 0 0 0 0 0 0 0 0 0
0 0 0 0 0 0 0 0 0 0 0 0 0 0 0 0 0 0 0 0 0 0
0 0 0 0 0 0 0 0 0 0 0 0 0 0 0 0 0 0 0 0 0 0
0 0 0 0 0 0 0 0 0 0 0 0 0 0 0 0 0 0 0 0 0 0
0 0 0 0 0 0 0 0 0 0 0 0 0 0 0 0 0 0 0 0 0 0
0 0 0 0 0 0 0 0 0 0 0 0 0 0 0 0 0 0 0 0 0 0
0 0 0 0 0 0 0 0 0 0 0 0 0 0 0 0 0 0 0 0 0 0
0 0 0 0 0 0 0 0 0 0 0 0 0 0 0 0 0 0 0 0 0 0
0 0 0 0 0 0 0 0 0 0 0 0 0 0 0 0 0 0 0 0 0 0
0 0 0 0 0 0 0 0 0 0 0 0 0 0 0 0 0 0 0 0 0 0
0 0 0 0 0 0 0 0 0 0 0 0 0 0 0 0 0 0 0 0 0 0
0 0 0 0 0 0 0 0 0 0 0 0 0 0 0 0 0 0 0 0 0 0
0 0 0 0 0 0 0 0 0 0 0 0 0 0 0 0 0 0 0 0 0 0
0 0 0 0 0 0 0 0 0 0 0 0 0 0 0 0 0 0 0 0 0 0
Wind_Speed_500mb
65 65 65 61 56 50 52 48 38 40 34 33 32 31 31 29 29 29 28 26 25 25
61 63 64 59 53 52 53 51 45 34 36 33 33 31 30 31 31 27 24 26 27 21
59 60 60 57 56 51 50 50 47 37 37 33 33 31 34 37 34 26 27 24 19 22
55 54 53 50 46 40 44 44 42 35 36 34 34 34 36 39 21 22 26 23 17 14
43 41 42 43 42 43 42 41 36 35 33 33 32 29 28 24 23 24 22 16 12 12
33 33 35 41 44 42 41 41 39 33 30 32 31 28 26 25 23 19 16 14 12 14
31 30 34 40 40 49 40 38 32 33 31 29 28 29 25 22 18 18 17 13 12 15
33 34 38 41 42 43 38 36 31 34 33 33 31 26 22 21 17 16 14 13 17 22
35 36 40 42 42 41 41 39 35 36 34 33 29 26 22 17 15 14 15 20 22 23
36 36 39 41 40 41 39 39 40 38 35 31 28 24 18 14 14 17 21 22 21 20
39 40 40 41 42 43 43 42 40 37 35 31 26 20 15 14 18 21 21 21 21 19
43 44 45 46 46 45 45 43 40 37 32 28 23 17 15 19 19 20 21 21 20 19
44 45 45 45 47 46 43 40 38 34 31 28 24 19 21 22 21 20 20 21 22 20
44 44 46 46 44 43 43 41 38 36 33 29 23 23 23 21 20 21 21 21 21 20
Wind_Direction_500mb
240 245 248 248 247 243 236 248 251 255 260 250 250 248 250 254 262 264 262 264 261 244
241 244 249 250 245 239 229 235 241 244 247 244 245 246 245 248 247 250 253 237 252 254
242 247 251 249 242 227 226 230 240 234 246 241 242 243 250 247 244 241 249 241 247 261
246 247 244 237 225 218 220 225 221 235 240 241 245 243 248 221 231 244 241 253 255 260
237 229 223 217 207 208 215 208 228 229 234 238 229 226 224 244 244 241 236 238 245 263
217 210 201 196 195 203 202 219 230 224 220 220 226 228 225 226 221 218 224 232 252 276
210 199 193 192 200 204 207 222 232 217 212 211 212 213 205 203 202 218 230 249 276 290
204 197 189 192 197 203 212 222 215 207 203 203 200 198 195 202 210 230 251 271 281 289
203 199 194 195 200 209 210 220 207 200 197 196 194 197 203 212 228 246 269 281 286 289
207 204 202 202 210 213 212 203 198 194 194 195 197 202 208 219 248 271 280 285 288 288
210 208 207 207 205 203 201 199 197 197 197 195 197 203 215 248 273 280 282 284 286 285
211 209 207 205 204 203 203 200 199 198 197 198 199 210 246 266 271 274 284 287 284 281
211 209 208 207 206 205 202 203 202 201 202 204 212 239 258 262 265 276 280 277 273 273
212 210 210 211 209 207 207 206 207 207 209 214 237 253 257 265 275 279 276 271 272 278
Wind_Speed_850mb
65 65 65 61 56 50 52 48 38 40 34 33 32 31 31 29 29 29 28 26 25 25
61 63 64 59 53 52 53 51 45 34 36 33 33 31 30 31 31 27 24 26 27 21
59 60 60 57 56 51 50 50 47 37 37 33 33 31 34 37 34 26 27 24 19 22
55 54 53 50 46 40 44 44 42 35 36 34 34 34 36 39 21 22 26 23 17 14
43 41 42 43 42 43 42 41 36 35 33 33 32 29 28 24 23 24 22 16 12 12
33 33 35 41 44 42 41 41 39 33 30 32 31 28 26 25 23 19 16 14 12 14
31 30 34 40 40 49 40 38 32 33 31 29 28 29 25 22 18 18 17 13 12 15
33 34 38 41 42 43 38 36 31 34 33 33 31 26 22 21 17 16 14 13 17 22
35 36 40 42 42 41 41 39 35 36 34 33 29 26 22 17 15 14 15 20 22 23
36 36 39 41 40 41 39 39 40 38 35 31 28 24 18 14 14 17 21 22 21 20
39 40 40 41 42 43 43 42 40 37 35 31 26 20 15 14 18 21 21 21 21 19
43 44 45 46 46 45 45 43 40 37 32 28 23 17 15 19 19 20 21 21 20 19
44 45 45 45 47 46 43 40 38 34 31 28 24 19 21 22 21 20 20 21 22 20
44 44 46 46 44 43 43 41 38 36 33 29 23 23 23 21 20 21 21 21 21 20
Wind_Direction_850mb
240 245 248 248 247 243 236 248 251 255 260 250 250 248 250 254 262 264 262 264 261 244
241 244 249 250 245 239 229 235 241 244 247 244 245 246 245 248 247 250 253 237 252 254
242 247 251 249 242 227 226 230 240 234 246 241 242 243 250 247 244 241 249 241 247 261
246 247 244 237 225 218 220 225 221 235 240 241 245 243 248 221 231 244 241 253 255 260
237 229 223 217 207 208 215 208 228 229 234 238 229 226 224 244 244 241 236 238 245 263
217 210 201 196 195 203 202 219 230 224 220 220 226 228 225 226 221 218 224 232 252 276
210 199 193 192 200 204 207 222 232 217 212 211 212 213 205 203 202 218 230 249 276 290
204 197 189 192 197 203 212 222 215 207 203 203 200 198 195 202 210 230 251 271 281 289
203 199 194 195 200 209 210 220 207 200 197 196 194 197 203 212 228 246 269 281 286 289
207 204 202 202 210 213 212 203 198 194 194 195 197 202 208 219 248 271 280 285 288 288
210 208 207 207 205 203 201 199 197 197 197 195 197 203 215 248 273 280 282 284 286 285
211 209 207 205 204 203 203 200 199 198 197 198 199 210 246 266 271 274 284 287 284 281
211 209 208 207 206 205 202 203 202 201 202 204 212 239 258 262 265 276 280 277 273 273
212 210 210 211 209 207 207 206 207 207 209 214 237 253 257 265 275 279 276 271 272 278